Tracking 34403 objects as of 13-Jun-2026
HD Live streaming from Space Station
objects crossing your sky now

CARB

Track CARB now!
10-day predictions


NORAD ID: 64899
Int'l Code: 2025-156A
Perigee: 650.3 km
Apogee: 671.4 km
Inclination: 98.0 °
Period: 97.8 minutes
Semi major axis: 7031 km
RCS: Unknown
Launch date: July 26, 2025
Source: France (FR)
Launch site: FRENCH GUIANA (FRGUI)
Your satellite tracking list
Your tracking list is empty




NASA's NSSDC Master Catalog

Two Line Element Set (TLE):
1 64899U 25156A   26163.80025385  .00000464  00000-0  81192-4 0  9993
2 64899  97.9832 241.0158 0015000 287.6346  72.3223 14.72321334 47324
Source of the keplerian elements: AFSPC